Driggs, ID

6:31 AM MDT on August 18, 2017 (GMT -0600)
Driggs

Weather History for KDIJ - March, 2013

Change the Weather History Date:

Friday, March 1, 2013

  Actual Average (KJAC) Record (KJAC)
Temperature  
Mean Temperature 29 °F -  
Max Temperature 34 °F 35 °F 44 °F (1959)
Min Temperature 24 °F 10 °F -25 °F (1960)
Degree Days  
Heating Degree Days 36    
Moisture  
Dew Point 27 °F    
Average Humidity 89    
Maximum Humidity 100    
Minimum Humidity 75    
Precipitation  
Precipitation 0.08 in - - ()
Sea Level Pressure  
Sea Level Pressure 30.49 in    
Wind  
Wind Speed 4 mph (SW)    
Max Wind Speed 13 mph    
Max Gust Speed -    
Visibility 9 miles    
Events      
Averages and records for this station are not official NWS values.
T = Trace of Precipitation, MM = Missing Value Source: NWS Daily Summary

Daily Weather History Graph

Daily Weather History Graph

Search for Another Location

Airport or City:

Trip Planner

Search our weather history database for the weather conditions in past years. The results will help you decide how hot, cold, wet, or windy it might be!

Date:

Astronomy

Mar. 01, 2013 Rise Set
Actual Time 7:00 AM MST 6:13 PM MST
Civil Twilight 6:31 AM MST 6:42 PM MST
Nautical Twilight 5:58 AM MST 7:15 PM MST
Astronomical Twilight 5:25 AM MST 7:48 PM MST
Moon 11:01 PM MST (3/1) 8:39 AM MST (3/1)
Length of Visible Light 12h 10m
Length of Day
11h 12m
Waning Gibbous, 83% of the Moon is Illuminated
Mar 1
Waning Gibbous
Mar 4
Last Quarter
Mar 11
New
Mar 19
First Quarter
Mar 27
Full

Hourly Weather History & Observations

Time (MST) Temp. Windchill Dew Point Humidity Pressure Visibility Wind Dir Wind Speed Gust Speed Precip Events Conditions
12:56 AM 24.1 °F - 21.0 °F 88% 30.50 in 10.0 mi Calm Calm - 0.00 in   Overcast
2:48 AM 26.6 °F 17.5 °F 24.8 °F 93% 30.43 in 4.0 mi South 9.2 mph - N/A   Overcast
2:56 AM 27.1 °F 19.7 °F 25.2 °F 92% 30.48 in 4.0 mi SSW 6.9 mph - N/A   Overcast
3:45 AM 26.6 °F 15.7 °F 24.8 °F 93% 30.42 in 10.0 mi South 12.7 mph - N/A   Overcast
3:56 AM 26.1 °F 16.8 °F 24.1 °F 92% 30.47 in 10.0 mi South 9.2 mph - N/A   Overcast
4:56 AM 27.1 °F 16.9 °F 25.2 °F 92% 30.51 in 10.0 mi South 11.5 mph - N/A   Overcast
6:25 AM 24.8 °F 20.5 °F 23.0 °F 93% 30.47 in 10.0 mi SSW 3.5 mph - N/A   Overcast
6:56 AM 25.2 °F 20.9 °F 23.0 °F 91% 30.53 in 10.0 mi SSE 3.5 mph - N/A   Overcast
7:15 AM 24.8 °F 20.5 °F 24.8 °F 100% 30.47 in 10.0 mi South 3.5 mph - N/A   Overcast
7:56 AM 25.2 °F 19.5 °F 24.1 °F 96% 30.54 in 10.0 mi South 4.6 mph - N/A   Overcast
8:56 AM 27.1 °F - 24.1 °F 88% 30.53 in 10.0 mi Calm Calm - N/A   Overcast
9:56 AM 28.0 °F - 25.2 °F 89% 30.51 in 3.0 mi Calm Calm - N/A   Mostly Cloudy
10:56 AM 30.0 °F 26.5 °F 25.2 °F 82% 30.51 in 10.0 mi NNW 3.5 mph - 0.02 in   Mostly Cloudy
11:56 AM 32.0 °F 26.4 °F 27.1 °F 82% 30.50 in 10.0 mi North 5.8 mph - 0.02 in   Mostly Cloudy
12:09 PM 33.8 °F 27.0 °F 26.6 °F 75% 30.48 in 10.0 mi North 8.1 mph - N/A   Overcast
1:11 PM 32.0 °F 26.4 °F 28.4 °F 87% 30.47 in 10.0 mi NNW 5.8 mph - 0.01 in   Overcast
1:21 PM 32.0 °F 27.5 °F 26.6 °F 80% 30.47 in 10.0 mi NW 4.6 mph - 0.01 in   Overcast
1:56 PM 34.0 °F 31.0 °F 28.0 °F 79% 30.48 in 10.0 mi North 3.5 mph - 0.02 in   Overcast
2:23 PM 33.8 °F - 28.4 °F 81% 30.47 in 10.0 mi Calm Calm - 0.01 in   Overcast
3:56 PM 32.0 °F - 28.0 °F 85% 30.49 in 10.0 mi Calm Calm - 0.01 in   Overcast
4:56 PM 31.1 °F 26.4 °F 29.1 °F 92% 30.49 in 10.0 mi WNW 4.6 mph - N/A   Overcast
5:56 PM 32.0 °F - 29.1 °F 89% 30.50 in 10.0 mi Calm Calm - 0.01 in   Overcast
6:56 PM 30.0 °F 26.5 °F 29.1 °F 96% 30.51 in 10.0 mi NW 3.5 mph - N/A   Overcast
7:56 PM 31.1 °F - 29.1 °F 92% 30.51 in 10.0 mi Calm Calm - N/A   Overcast
8:56 PM 30.0 °F 25.2 °F 28.0 °F 92% 30.51 in 10.0 mi WSW 4.6 mph - N/A   Scattered Clouds
9:12 PM 30.2 °F - 28.4 °F 93% 30.48 in 10.0 mi Calm Calm - N/A   Mostly Cloudy
9:56 PM 31.1 °F 27.7 °F 29.1 °F 92% 30.50 in 10.0 mi South 3.5 mph - N/A   Overcast
10:56 PM 32.0 °F 28.7 °F 29.1 °F 89% 30.49 in 10.0 mi SSW 3.5 mph - N/A   Overcast
11:56 PM 34.0 °F 28.0 °F 31.1 °F 89% 30.47 in 10.0 mi SSE 6.9 mph - N/A   Overcast